Regional Weather Roundup
Issued by NWS Sioux Falls, SD

Home | Current Version | Previous Version | Graphics & Text | Print | Product List | Glossary Off
Versions: 1 2 3 4 5 6 7 8 9 10 11 12 13 14 15 16 17 18 19 20 21 22 23 24 25 26 27 28 29 30 31 32 33 34 35 36 37 38 39 40 41 42 43 44 45 46 47 48 49 50

000
ASUS43 KFSD 180010
RWRFSD

WEATHER ROUNDUP FOR SE SOUTH DAKOTA/SW MINNESOTA/NW IOWA
NATIONAL WEATHER SERVICE SIOUX FALLS SD
700 PM CDT THU AUG 17 2017

NOTE: "FAIR" INDICATES FEW OR NO CLOUDS BELOW 12,000 FEET WITH NO
SIGNIFICANT WEATHER AND OR OBSTRUCTIONS TO VISIBILITY.


SDZ038>040-050-052>070-180100-
SOUTHEAST SOUTH DAKOTA

CITY           SKY/WX    TMP DP  RH WIND       PRES   REMARKS
BROOKINGS      SUNNY     74  61  63 NW3       29.90S
CHAMBERLAIN    MOSUNNY   78  65  65 E12       29.83F
6HR MIN TEMP:  78; 6HR MAX TEMP:  86;

HURON          SUNNY     77  61  57 E7        29.86F
6HR MIN TEMP:  77; 6HR MAX TEMP:  82;

MADISON        FAIR      73  59  60 N3        29.90F
MITCHELL       SUNNY     78  62  57 E5        29.88S
6HR MIN TEMP:  77; 6HR MAX TEMP:  83;

SIOUX FALLS    SUNNY     78  60  53 N7        29.89F
6HR MIN TEMP:  76; 6HR MAX TEMP:  80;

WINNER         TSTM      85  45  24 SW23G36   29.83F
YANKTON        SUNNY     81  59  47 CALM      29.90S
$$

MNZ071-072-080-081-089-090-097-098-180100-
SOUTHWEST MINNESOTA

CITY           SKY/WX    TMP DP  RH WIND       PRES   REMARKS
FAIRMONT       SUNNY     73  63  70 NW8       29.86S
JACKSON        SUNNY     72  59  64 NW7       29.88S
LUVERNE        SUNNY     73  59  60 NW5       29.90S
MARSHALL       SUNNY     73  61  65 N7        29.87S
6HR MIN TEMP:  69; 6HR MAX TEMP:  76; 6HR PCP:  0.10;

MONTEVIDEO     SUNNY     75  66  73 N5        29.86R
PIPESTONE      SUNNY     75  59  57 NW6       29.90S
REDWOOD FALLS  SUNNY     74  61  63 NW10      29.85R
TRACY          SUNNY     73  62  68 NW7       29.88S
WINDOM         SUNNY     73  61  64 NW12      29.87S
WORTHINGTON    SUNNY     75  63  66 NW9       29.89S
$$

IAZ001>003-012>014-020>022-031-032-NEZ013-014-SDZ071-180100-
NORTHWEST IOWA

CITY           SKY/WX    TMP DP  RH WIND       PRES   REMARKS
CHEROKEE       SUNNY     78  60  53 NW5       29.89S
DENISON        SUNNY     77  61  57 VRB7      29.92S
ESTHERVILLE    SUNNY     73  63  70 N9        29.86R
LE MARS        SUNNY     77  63  61 NW5       29.90R
ORANGE CITY    SUNNY     77  64  65 W6        29.90S
SHELDON        SUNNY     75  63  64 NW5       29.88S
SIOUX CITY     SUNNY     80  62  54 W6        29.90R
6HR MIN TEMP:  77; 6HR MAX TEMP:  82;

SPENCER        SUNNY     77  63  61 NW10      29.88R
6HR MIN TEMP:  73; 6HR MAX TEMP:  81;

STORM LAKE     SUNNY     73  61  64 MISG      29.90R
$$

ABBREVIATIONS USED IN REMARKS
   TC - TEMPERATURE IN CELSIUS
  WCI - WIND CHILL INDEX
   HX - HEAT INDEX
  VSB - VISIBILITY




USA.gov is the U.S. government's official web portal to all federal, state and local government web resources and services.